Baton Rouge, LA

2:27 AM CDT on June 27, 2019 (GMT -0500)
Baton Rouge Metro-Ryan

Weather History for KBTR - May, 2019

Change the Weather History Date:

Thursday, May 23, 2019

  Actual Average Record
Temperature  
Mean Temperature 83 °F 77 °F  
Max Temperature 92 °F 88 °F 94 °F (1918)
Min Temperature 73 °F 67 °F 49 °F (2002)
Degree Days  
Heating Degree Days 0 0  
Month to date heating degree days 0 0  
Since 1 July heating degree days 1391 1553  
Cooling Degree Days 18 12  
Month to date cooling degree days 275 227  
Year to date cooling degree days 541 458  
Growing Degree Days 32 (Base 50)    
Moisture  
Dew Point 72 °F    
Average Humidity 74    
Maximum Humidity 100    
Minimum Humidity 47    
Precipitation  
Precipitation 0.00 in 0.16 in 2.94 in (1927)
Month to date precipitation 9.70 3.53  
Year to date precipitation 26.85 23.16  
Snow  
Snow 0.00 in - - ()
Month to date snowfall 0.0  
Since 1 July snowfall 0.0  
Snow Depth 0.00 in    
Sea Level Pressure  
Sea Level Pressure 30.08 in    
Wind  
Wind Speed 8 mph (ESE)    
Max Wind Speed 16 mph    
Max Gust Speed 20 mph    
Visibility 10 miles    
Events      
T = Trace of Precipitation, MM = Missing Value Source: NWS Daily Summary

Daily Weather History Graph

Daily Weather History Graph

Search for Another Location

Airport or City:

Astronomy

May. 23, 2019 Rise Set
Actual Time 6:05 AM CDT 7:57 PM CDT
Civil Twilight 5:39 AM CDT 8:23 PM CDT
Nautical Twilight 5:06 AM CDT 8:56 PM CDT
Astronomical Twilight 4:32 AM CDT 9:30 PM CDT
Moon No Moon Rise 10:10 AM CDT (5/23)
Length of Visible Light 14h 44m
Length of Day
13h 51m
Waning Gibbous, 77% of the Moon is Illuminated
May 23
Waning Gibbous
May 26
Last Quarter
Jun 3
New
Jun 10
First Quarter
Jun 17
Full

Hourly Weather History & Observations

Time (CDT) Temp. Heat Index Dew Point Humidity Pressure Visibility Wind Dir Wind Speed Gust Speed Precip Events Conditions
12:53 AM 75.9 °F - 73.9 °F 94% 30.04 in 10.0 mi East 5.8 mph - N/A   Clear
1:53 AM 75.0 °F - 73.0 °F 94% 30.03 in 10.0 mi East 4.6 mph - N/A   Clear
2:28 AM 75.0 °F - 73.9 °F 96% 30.04 in 10.0 mi ESE 8.1 mph - N/A   Mostly Cloudy
2:53 AM 75.9 °F - 73.9 °F 94% 30.04 in 10.0 mi SE 6.9 mph - N/A   Mostly Cloudy
3:53 AM 75.9 °F - 73.9 °F 94% 30.05 in 10.0 mi SE 8.1 mph - N/A   Mostly Cloudy
4:20 AM 75.9 °F - 73.0 °F 91% 30.06 in 10.0 mi SE 8.1 mph - N/A   Scattered Clouds
4:53 AM 75.0 °F - 73.0 °F 94% 30.06 in 10.0 mi ESE 5.8 mph - N/A   Clear
5:53 AM 73.9 °F - 73.0 °F 97% 30.08 in 10.0 mi East 3.5 mph - N/A   Clear
6:27 AM 73.9 °F - 73.0 °F 97% 30.09 in 8.0 mi East 5.8 mph - N/A   Mostly Cloudy
6:53 AM 75.0 °F - 73.0 °F 94% 30.09 in 10.0 mi ESE 6.9 mph - N/A   Mostly Cloudy
6:55 AM 75.0 °F - 73.0 °F 94% 30.10 in 10.0 mi East 6.9 mph - N/A   Partly Cloudy
7:40 AM 75.9 °F - 73.9 °F 94% 30.11 in 10.0 mi East 6.9 mph - N/A   Mostly Cloudy
7:53 AM 77.0 °F - 73.9 °F 90% 30.11 in 10.0 mi East 10.4 mph - N/A   Mostly Cloudy
8:53 AM 80.1 °F 84.5 °F 73.9 °F 81% 30.12 in 10.0 mi ESE 10.4 mph - N/A   Mostly Cloudy
9:53 AM 84.0 °F 90.2 °F 73.0 °F 69% 30.13 in 10.0 mi ESE 9.2 mph - N/A   Mostly Cloudy
10:53 AM 86.0 °F 91.5 °F 71.1 °F 61% 30.13 in 10.0 mi ESE 11.5 mph - N/A   Mostly Cloudy
11:53 AM 88.0 °F 93.8 °F 71.1 °F 57% 30.14 in 10.0 mi SE 13.8 mph - N/A   Mostly Cloudy
12:53 PM 91.0 °F 95.2 °F 68.0 °F 47% 30.13 in 10.0 mi SE 10.4 mph 18.4 mph N/A   Mostly Cloudy
1:53 PM 90.0 °F 93.6 °F 68.0 °F 48% 30.11 in 10.0 mi East 11.5 mph - N/A   Mostly Cloudy
2:00 PM 91.0 °F 95.6 °F 69.1 °F 48% 30.11 in 10.0 mi East 8.1 mph - N/A   Scattered Clouds
2:53 PM 91.0 °F 97.6 °F 71.1 °F 52% 30.09 in 10.0 mi ESE 6.9 mph - N/A   Partly Cloudy
3:53 PM 90.0 °F 96.9 °F 72.0 °F 55% 30.08 in 10.0 mi East 10.4 mph - N/A   Mostly Cloudy
4:53 PM 90.0 °F 96.4 °F 71.1 °F 54% 30.06 in 10.0 mi East 11.5 mph - N/A   Clear
5:53 PM 88.0 °F 94.7 °F 72.0 °F 59% 30.06 in 10.0 mi ESE 12.7 mph - N/A   Clear
6:53 PM 86.0 °F 92.2 °F 72.0 °F 63% 30.06 in 10.0 mi ESE 9.2 mph - N/A   Clear
7:53 PM 82.9 °F 88.0 °F 72.0 °F 69% 30.07 in 10.0 mi ESE 9.2 mph - N/A   Clear
8:53 PM 80.1 °F 84.2 °F 73.0 °F 79% 30.08 in 10.0 mi East 6.9 mph - N/A   Clear
9:53 PM 79.0 °F - 73.9 °F 84% 30.09 in 10.0 mi ESE 6.9 mph - N/A   Clear
10:53 PM 78.1 °F - 73.0 °F 84% 30.09 in 10.0 mi ESE 3.5 mph - N/A   Clear
11:53 PM 75.0 °F - 72.0 °F 90% 30.09 in 10.0 mi East 4.6 mph - N/A   Clear